Regional Weather Roundup
Issued by NWS Cleveland, OH

Home | Current Version | Previous Version | Graphics & Text | Print | Product List | Glossary On
Versions: 1 2 3 4 5 6 7 8 9 10 11 12 13 14 15 16 17 18 19 20 21 22 23 24 25 26 27 28 29 30 31 32 33 34 35 36 37 38 39 40 41 42 43 44 45 46 47 48 49 50
000
ASUS41 KCLE 041210
RWRCLE
OHIO REGIONAL WEATHER ROUNDUP
NATIONAL WEATHER SERVICE WILMINGTON, OH
800 AM EDT MON MAY 04 2015

NOTE: "FAIR" INDICATES FEW OR NO CLOUDS BELOW 12,000 FEET WITH NO
SIGNIFICANT WEATHER AND/OR OBSTRUCTIONS TO VISIBILITY.

OHZ001>008-015>018-024>027-034-035-043-044-041300-
   NORTHWEST OHIO

CITY           SKY/WX    TMP DP  RH WIND       PRES   REMARKS
DEFIANCE       PTSUNNY   64  49  57 S9        30.05S
FINDLAY        PTSUNNY   63  49  60 S12       30.08R
TOLEDO EXPRESS PTSUNNY   64  48  56 S9        30.05R
TOLEDO EXEC    PTSUNNY   64  48  56 S10       30.06S
LIMA           MOSUNNY   61  49  64 S10       30.10R
$$

OHZ009>014-019>023-028>033-038-089-041300-
   NORTHEAST OHIO

CITY           SKY/WX    TMP DP  RH WIND       PRES   REMARKS
CLE-HOPKINS    MOSUNNY   65  45  48 S12       30.13R
CLE-LAKEFRONT  SUNNY     65  44  46 S10       30.09R
CUY CO. ARPT   MOSUNNY   68  46  45 S12       30.13R
LORAIN-ELYRIA  MOSUNNY   61  47  59 S8        30.11R
ASHTABULA      SUNNY     61  42  49 S10       30.14R
AKRON-CANTON   MOSUNNY   61  44  53 S7        30.15S
WOOSTER        SUNNY     58  45  62 S9        30.15R
MANSFIELD      SUNNY     62  46  55 S12       30.14R
YOUNGSTOWN     MOSUNNY   63  41  44 S7        30.16R
$$

OHZ042-051>053-060>062-070>072-077>081-041300-
  SOUTHWEST OHIO

CITY           SKY/WX    TMP DP  RH WIND       PRES   REMARKS
CINC-COVINGTON PTSUNNY   60  50  69 S8        30.16
CINC-LUNKEN    SUNNY     53  53 100 CALM      30.17R
HAMILTON       MOSUNNY   59  52  77 E5        30.16R
DAYTON         PTSUNNY   63  49  60 S10       30.14R
WRIGHT-PAT AFB MOSUNNY   60  50  69 S6        30.14R
DAYTON GENERAL MOSUNNY   59  50  72 S8        30.14R
WILMINGTON     SUNNY     60  47  61 S8        30.15R
$$

OHZ036-037-039>041-045>050-054>059-063>069-073>076-082>088-041300-
  CENTRAL AND SOUTHEAST OHIO

CITY           SKY/WX    TMP DP  RH WIND       PRES   REMARKS
COLUMBUS       MOSUNNY   59  48  67 CALM      30.15R
OSU AIRPORT    MOSUNNY   59  46  62 S7        30.15R
BOLTON FIELD   SUNNY     57  48  72 S6        30.16R
RICKENBACK AFB MOSUNNY   56  48  75 S3        30.15S
NEWARK         SUNNY     53  49  86 CALM      30.16R
MARION         MOSUNNY   60  47  61 S9        30.13R
LANCASTER      SUNNY     56  51  84 CALM      30.17R
ZANESVILLE     SUNNY     53  44  71 CALM      30.17R
NEW PHILLY     SUNNY     54  46  74 SE5       30.17S HAZE
$$


USA.gov is the U.S. government's official web portal to all federal, state and local government web resources and services.